Regional Weather Roundup
Issued by NWS

Home | Current Version | Previous Version | Text Only | Print | Product List | Glossary On
Versions: 1 2 3 4 5 6 7 8 9 10 11 12 13 14 15 16 17 18 19 20 21 22 23 24 25 26 27 28 29 30 31 32 33 34 35 36 37 38 39 40 41 42 43 44 45 46 47 48 49 50
000
ASUS43 KDMX 070107
RWRIA

WEATHER ROUNDUP FOR IOWA
NATIONAL WEATHER SERVICE DES MOINES IA
800 PM CDT WED MAY 06 2015

NOTE: "FAIR" INDICATES FEW OR NO CLOUDS BELOW 12,000 FEET WITH NO
SIGNIFICANT WEATHER AND/OR OBSTRUCTIONS TO VISIBILITY.

* - THESE STATIONS ARE NOT NWS STATIONS...THUS NOT UNDER NWS
QUALITY CONTROL.  THEY ALSO DO NOT REPORT WEATHER SUCH
AS PRECIPITATION OR FOG.

IAZ001>003-012>014-020>022-031>034-043>046-070200-
   NORTHWEST IOWA

CITY           SKY/WX    TMP DP  RH WIND       PRES   REMARKS
CARROLL *      MOCLDY    70  59  68 S17G25    29.82S
CHEROKEE *     CLOUDY    68  61  77 SE15G23   29.77F
DENISON *      MOCLDY    70  63  78 S20G29    29.77S
LE MARS *      CLEAR     68  61  77 SE15G24   29.74S
ORANGE CITY *  CLEAR     64  59  82 SE14G22   29.75S
SHELDON *      MOCLDY    66 N/A N/A SE20G28   29.75S
SIOUX CITY     MOCLDY    69  60  73 SE20G28   29.72F
SPENCER        CLOUDY    69  59  70 SE17      29.79F
STORM LAKE *   PTCLDY    66  59  77 S18       29.81S
$$

IAZ055>058-069>071-079>083-090>094-070200-
   SOUTHWEST IOWA

CITY           SKY/WX    TMP DP  RH WIND       PRES   REMARKS
ATLANTIC *     CLOUDY    70  59  68 SE12G21   29.82R
AUDUBON *      MOCLDY    70  61  73 S14G20    29.83F
CLARINDA *     PTCLDY    70  59  68 SE14G24   29.84S
COUNCIL BLFS * CLOUDY    68  63  83 SE21      29.78S
CRESTON *      MOCLDY    68  59  73 S18G24    29.88R
HARLAN  *      CLOUDY    70  64  83 S18G28    29.83S
LAMONI         MOCLDY    70  59  68 S10       29.89S
RED OAK *      PTCLDY    70  59  68 SE16      29.80F
SHENANDOAH *   CLEAR     70  59  68 SE18G29   29.79F
$$

IAZ047>049-059>061-072>074-084-070200-
   CENTRAL IOWA

CITY           SKY/WX    TMP DP  RH WIND       PRES   REMARKS
AMES           PTCLDY    70  58  65 S15G25    29.87S
ANKENY *       CLEAR     72  59  64 S18G25    29.88S
CHARITON *     MOCLDY    70  59  68 S14G21    29.91R
DES MOINES     MOCLDY    72  58  61 S14       29.88S
GRINNELL*      PTCLDY    70  57  64 SE10      29.92S
KNOXVILLE *    MOCLDY    72  57  60 S10G17    29.90R
MARSHALLTOWN   PTCLDY    71  57  61 S15       29.90R
PELLA *        MOCLDY    72  61  68 SE8       29.92S
PERRY *          N/A     70  59  68 S15G22    29.86R
$$

IAZ004>006-015-016-023>025-035-036-070200-
   NORTH CENTRAL IOWA

CITY           SKY/WX    TMP DP  RH WIND       PRES   REMARKS
ALGONA *       MOCLDY    72  57  60 S21G30    29.85R
CLARION *      CLEAR     70  57  64 S20G26    29.86R
ESTHERVILLE    MOCLDY    68  59  73 S18G28    29.81S
FORT DODGE *   PTCLDY    70  55  60 SE9G17    29.86R
MASON CITY     PTCLDY    68  59  73 SE15      29.89R
FOREST CITY *  CLEAR     68  57  68 SE15      29.87R
IOWA FALLS *     N/A     70  57  64 SE12      29.91R
$$

IAZ007>011-017>019-026>030-037>042-050>054-066-070200-
   NORTHEAST IOWA

CITY           SKY/WX    TMP DP  RH WIND       PRES   REMARKS
CEDAR RAPIDS   CLOUDY    64  62  93 SE8       29.95F
CHARLES CITY * CLOUDY    68  64  88 SE13G20   29.92R
CLINTON *      MOCLDY    68  61  77 CALM      30.02S
DECORAH *      MOCLDY    66  61  82 S12G17    29.94F
DUBUQUE        MOCLDY    67  59  75 SW9       30.00F
MONTICELLO *   MOCLDY    66  64  94 SE7       29.98F
OELWEIN *      PTCLDY    64  63  94 SE16      29.95S
WATERLOO       MOCLDY    68  61  78 SE14      29.92S
$$

IAZ064-065-067-068-078-070200-
   EAST CENTRAL IOWA

CITY           SKY/WX    TMP DP  RH WIND       PRES   REMARKS
DAVENPORT      CLOUDY    71  58  63 S3        29.99F
IOWA CITY      CLOUDY    65  62  90 SE6       29.97F
MT. PLEASANT * MOCLDY    66  64  94 CALM      29.96F
MUSCATINE *    PTCLDY    70  63  78 CALM      29.97F
QUAD CITIES    PTCLDY    70  59  68 CALM      29.98F
$$

IAZ062-063-075>077-085>089-095>099-070200-
   SOUTHEAST IOWA

CITY           SKY/WX    TMP DP  RH WIND       PRES   REMARKS
BURLINGTON     MOCLDY    69  64  84 E3        29.97F
FAIRFIELD *    PTCLDY    68  63  83 SE9       29.95S
FORT MADISON * CLEAR     70  63  78 CALM      29.98S
KEOKUK *       PTCLDY    68  63  83 E3        29.96S
OSKALOOSA *      N/A     70  57  64 SE10G17   29.92F
CENTERVILLE *  CLEAR     70  61  73 SE9       29.94R
OTTUMWA        MOCLDY    71  57  61 SE9       29.92F
WASHINGTON *   PTCLDY    66 -40   1 SE7       29.96S
$$

ABBREVIATIONS USED IN REMARKS
   TC - TEMPERATURES IN CELSIUS
  WCI - WIND CHILL INDEX
   HX - HEAT INDEX
  VSB - VISIBILITY
$$




USA.gov is the U.S. government's official web portal to all federal, state and local government web resources and services.